EW7554 Weather Reports


time (UTC)temp
C
wind
direction
speed
KPH
gust
KPH
rain 1hr
cm
rain 24hr
cm
rain mn
cm
humidity
%
barometer
mb
20260510133034 9 340 0.0 8.0 0.00 0.00 0.00 54 1020.8
20260510131534 9 355 3.2 8.0 0.00 0.00 0.00 54 1020.8
20260510130034 8 9 0.0 4.8 0.00 0.00 0.00 57 1020.7
20260510124530 8 5 3.2 6.4 0.00 0.00 0.00 59 1020.5
20260510123029 7 9 1.6 6.4 0.00 0.00 0.00 62 1020.4
20260510121526 6 355 1.6 6.4 0.00 0.00 0.00 68 1020.3
20260510120023 6 244 0.0 3.2 0.00 0.00 0.00 68 1019.9
20260510114520 5 244 1.6 4.8 0.00 0.00 0.00 67 1019.8
20260510113021 5 234 1.6 3.2 0.00 0.00 0.00 67 1019.6
20260510111514 5 234 0.0 3.2 0.00 0.00 0.00 67 1019.3
20260510110020 5 234 1.6 3.2 0.00 0.00 0.00 67 1019.2
20260510104509 5 234 0.0 4.8 0.00 0.00 0.00 66 1019.0
20260510103009 5 235 1.6 3.2 0.00 0.00 0.00 66 1018.7
20260510101507 5 235 0.0 3.2 0.00 0.00 0.00 66 1018.7
20260510100004 5 263 0.0 3.2 0.00 0.00 0.00 66 1018.4
20260510094504 5 263 0.0 3.2 0.00 0.00 0.00 66 1018.1
20260510093059 5 263 3.2 4.8 0.00 0.00 0.00 64 1018.0
20260510091557 5 263 0.0 4.8 0.00 0.00 0.00 64 1017.9
20260510090057 5 262 1.6 4.8 0.00 0.00 0.00 63 1017.8
20260510084601 5 269 1.6 4.8 0.00 0.00 0.00 62 1017.6
20260510083111 6 306 1.6 3.2 0.00 0.00 0.00 61 1017.4
20260510081608 6 311 0.0 1.6 0.00 0.00 0.00 61 1017.2
20260510080045 6 311 0.0 3.2 0.00 0.00 0.00 59 1017.0
20260510074543 6 311 0.0 3.2 0.00 0.00 0.00 58 1017.0
20260510073048 7 312 0.0 0.0 0.00 0.00 0.00 57 1017.0
20260510071537 7 312 0.0 0.0 0.00 0.00 0.00 55 1017.1
20260510070037 8 312 0.0 3.2 0.00 0.00 0.00 54 1017.1
20260510064535 8 312 0.0 3.2 0.00 0.00 0.00 53 1016.9
20260510063032 8 312 1.6 4.8 0.00 0.00 0.00 52 1016.9
20260510061530 8 313 1.6 4.8 0.00 0.00 0.00 52 1016.8
20260510060038 8 313 1.6 4.8 0.00 0.00 0.00 52 1016.8
20260510054525 8 313 0.0 3.2 0.00 0.00 0.00 49 1016.7
20260510053023 8 314 1.6 3.2 0.00 0.00 0.00 49 1016.6
20260510051520 9 315 0.0 3.2 0.00 0.00 0.00 46 1016.3
20260510050017 10 315 0.0 4.8 0.00 0.00 0.00 45 1016.4
20260510044515 10 319 1.6 8.0 0.00 0.00 0.00 44 1016.5
20260510043013 10 303 3.2 8.0 0.00 0.00 0.00 44 1016.4
20260510041511 10 324 3.2 9.7 0.00 0.00 0.00 43 1016.3
20260510040008 11 324 4.8 12.9 0.00 0.00 0.00 41 1016.1
20260510034505 11 328 3.2 16.1 0.00 0.00 0.00 42 1015.9
20260510033002 11 331 4.8 9.7 0.00 0.00 0.00 41 1015.7
20260510031606 11 296 6.4 12.9 0.00 0.00 0.00 39 1015.5
20260510030059 11 322 6.4 14.5 0.00 0.00 0.00 38 1015.2
20260510024553 12 296 6.4 16.1 0.00 0.00 0.00 37 1015.0
20260510023052 12 293 6.4 14.5 0.00 0.00 0.00 37 1014.6
20260510021547 12 284 6.4 16.1 0.00 0.00 0.00 36 1014.2
20260510020044 12 309 6.4 16.1 0.00 0.00 0.00 35 1013.9
20260510014545 13 333 12.9 22.5 0.00 0.00 0.00 34 1013.5
20260510013045 13 329 8.0 19.3 0.00 0.00 0.00 33 1013.4
20260510011536 13 329 12.9 22.5 0.00 0.00 0.00 32 1013.0
20260510010034 14 296 12.9 24.1 0.00 0.00 0.00 31 1012.9
20260510004532 14 296 8.0 27.4 0.00 0.00 0.00 31 1012.7
20260510003032 15 333 9.7 22.5 0.00 0.00 0.00 30 1012.5
20260510001529 15 315 11.3 29.0 0.00 0.00 0.00 30 1012.4
20260510000027 15 326 9.7 22.5 0.00 0.00 0.00 29 1012.2
20260509234535 15 325 9.7 24.1 0.00 0.00 0.00 29 1012.0
20260509233024 15 315 12.9 29.0 0.00 0.00 0.00 29 1011.9
20260509231523 15 332 8.0 24.1 0.00 0.00 0.00 28 1011.8
20260509230022 15 280 16.1 27.4 0.00 0.00 0.00 28 1011.6
20260509224520 15 322 11.3 32.2 0.00 0.00 0.00 28 1011.3
20260509223020 16 315 11.3 32.2 0.00 0.00 0.00 29 1011.2
20260509221520 15 331 14.5 30.6 0.00 0.00 0.00 28 1011.2
20260509220018 16 360 14.5 24.1 0.00 0.00 0.00 28 1011.1
20260509214520 16 355 9.7 25.7 0.00 0.00 0.00 29 1011.1
20260509213015 16 325 12.9 29.0 0.00 0.00 0.00 29 1010.9
20260509211515 15 297 9.7 30.6 0.00 0.00 0.00 30 1010.9
20260509210012 15 13 9.7 24.1 0.00 0.00 0.00 29 1010.9
20260509204512 15 343 14.5 33.8 0.00 0.00 0.00 30 1010.8
20260509203010 15 323 9.7 32.2 0.00 0.00 0.00 28 1010.7
20260509201510 15 333 11.3 27.4 0.00 0.00 0.00 30 1010.8
20260509200008 15 323 12.9 29.0 0.00 0.00 0.00 29 1010.8
20260509194507 15 317 11.3 29.0 0.00 0.00 0.00 31 1010.7
20260509193006 15 290 19.3 37.0 0.00 0.00 0.00 29 1010.6
20260509191506 15 271 9.7 25.7 0.00 0.00 0.00 34 1010.5
20260509190004 14 302 17.7 33.8 0.00 0.00 0.00 32 1010.6
20260509184655 14 304 16.1 29.0 0.00 0.00 0.00 35 1010.4
20260509183106 15 347 14.5 35.4 0.00 0.00 0.00 36 1010.3
20260509181556 14 305 12.9 25.7 0.00 0.00 0.00 36 1010.0
20260509180050 14 13 9.7 22.5 0.00 0.00 0.00 37 1009.9
20260509174547 13 321 19.3 30.6 0.00 0.00 0.00 37 1009.5